GW2459 Weather Reports


time (UTC)temp
C
wind
direction
speed
KPH
gust
KPH
rain 1hr
cm
rain 24hr
cm
rain mn
cm
humidity
%
barometer
mb
20260504173438 22 161 0.0 0.0 0.00 0.00 0.00 47 1010.9
20260504172936 22 260 6.4 9.7 0.00 0.00 0.00 48 1010.8
20260504172431 22 186 0.0 0.0 0.00 0.00 0.00 45 1010.9
20260504171928 22 199 0.0 0.0 0.00 0.00 0.00 45 1010.9
20260504171425 21 216 0.0 1.6 0.00 0.00 0.00 48 1011.0
20260504170922 22 281 4.8 4.8 0.00 0.00 0.00 47 1011.0
20260504170418 22 253 4.8 4.8 0.00 0.00 0.00 48 1011.2
20260504160337 20 154 0.0 0.0 0.00 0.00 0.00 53 1011.3
20260504150802 18 127 0.0 0.0 0.00 0.00 0.00 59 1011.2
20260504150259 17 133 0.0 0.0 0.00 0.00 0.00 61 1011.0
20260504141229 16 113 0.0 0.0 0.00 0.00 0.00 63 1010.7
20260504140725 16 99 0.0 0.0 0.00 0.00 0.00 62 1010.8
20260504140221 15 98 0.0 0.0 0.00 0.00 0.00 65 1010.9
20260504130649 13 203 0.0 0.0 0.00 0.00 0.00 75 1010.5
20260504130146 13 216 0.0 0.0 0.00 0.00 0.00 74 1010.3
20260504120110 15 202 0.0 0.0 0.00 0.00 0.00 60 1010.3
20260504110538 14 204 0.0 0.0 0.00 0.00 0.00 71 1010.4
20260504100454 15 254 3.2 3.2 0.00 0.00 0.00 66 1010.0
20260504081847 17 124 0.0 0.0 0.00 0.00 0.00 56 1010.1
20260504081343 17 121 0.0 0.0 0.00 0.00 0.00 55 1010.0
20260504080839 17 121 0.0 0.0 0.00 0.00 0.00 55 1009.9
20260504080337 18 121 0.0 0.0 0.00 0.00 0.00 54 1009.9
20260504070304 18 119 0.0 0.0 0.00 0.00 0.00 60 1009.8
20260504060224 18 121 3.2 3.2 0.00 0.00 0.00 57 1009.7
20260504050652 20 70 3.2 3.2 0.00 0.00 0.00 46 1009.7
20260504050149 20 49 0.0 3.2 0.00 0.00 0.00 46 1009.9
20260504045646 20 117 0.0 0.0 0.00 0.00 0.00 47 1009.9
20260504045146 20 122 0.0 0.0 0.00 0.00 0.00 47 1010.0
20260504044644 20 192 0.0 0.0 0.00 0.00 0.00 46 1009.8
20260504044141 20 200 0.0 0.0 0.00 0.00 0.00 47 1009.9
20260504043638 21 201 0.0 0.0 0.00 0.00 0.00 46 1009.8
20260504043135 21 202 0.0 0.0 0.00 0.00 0.00 46 1009.9
20260504042632 21 202 0.0 0.0 0.00 0.00 0.00 46 1009.6
20260504042129 21 201 0.0 0.0 0.00 0.00 0.00 44 1009.8
20260504041625 21 201 0.0 0.0 0.00 0.00 0.00 43 1009.9
20260504041121 21 208 0.0 0.0 0.00 0.00 0.00 44 1009.8
20260504040618 21 222 0.0 0.0 0.00 0.00 0.00 44 1009.8
20260504040115 22 223 0.0 0.0 0.00 0.00 0.00 43 1009.7
20260504035612 22 217 0.0 0.0 0.00 0.00 0.00 42 1009.6
20260504035108 22 216 0.0 0.0 0.00 0.00 0.00 42 1009.5
20260504034606 22 216 0.0 0.0 0.00 0.00 0.00 42 1009.6
20260504034103 22 217 0.0 0.0 0.00 0.00 0.00 41 1009.6
20260504033601 23 217 0.0 0.0 0.00 0.00 0.00 41 1009.5
20260504033058 23 231 0.0 0.0 0.00 0.00 0.00 40 1009.5
20260504032555 23 220 0.0 0.0 0.00 0.00 0.00 40 1009.5
20260504032052 23 236 3.2 3.2 0.00 0.00 0.00 39 1009.5
20260504031548 23 248 1.6 3.2 0.00 0.00 0.00 39 1009.4
20260504031045 24 261 3.2 3.2 0.00 0.00 0.00 39 1009.5
20260504030542 25 270 4.8 4.8 0.00 0.00 0.00 37 1009.4
20260504030038 25 259 4.8 4.8 0.00 0.00 0.00 35 1009.5
20260504025536 25 292 6.4 8.0 0.00 0.00 0.00 33 1009.6
20260504025032 25 222 0.0 0.0 0.00 0.00 0.00 33 1009.7
20260504024529 25 227 0.0 0.0 0.00 0.00 0.00 33 1009.6
20260504024026 25 220 0.0 0.0 0.00 0.00 0.00 31 1009.6
20260504023523 26 271 4.8 4.8 0.00 0.00 0.00 31 1009.6
20260504023018 26 260 8.0 9.7 0.00 0.00 0.00 31 1009.6
20260504022514 26 239 4.8 4.8 0.00 0.00 0.00 31 1009.8
20260504022011 26 264 9.7 11.3 0.00 0.00 0.00 29 1009.6
20260504021509 26 284 8.0 9.7 0.00 0.00 0.00 29 1009.7
20260504021006 27 271 8.0 8.0 0.00 0.00 0.00 28 1009.9
20260504020502 27 272 0.0 0.0 0.00 0.00 0.00 28 1009.7
20260504015959 27 255 4.8 4.8 0.00 0.00 0.00 28 1009.8
20260504015455 27 251 3.2 3.2 0.00 0.00 0.00 28 1009.8
20260504014951 27 230 4.8 8.0 0.00 0.00 0.00 27 1009.9
20260504014447 27 273 6.4 8.0 0.00 0.00 0.00 28 1009.8
20260504013944 27 262 8.0 9.7 0.00 0.00 0.00 26 1010.2
20260504013443 27 262 11.3 12.9 0.00 0.00 0.00 26 1009.9
20260504012938 27 281 4.8 8.0 0.00 0.00 0.00 29 1009.9
20260504012437 27 264 8.0 9.7 0.00 0.00 0.00 28 1010.0
20260504011934 27 273 11.3 12.9 0.00 0.00 0.00 29 1010.2
20260504011430 27 271 6.4 8.0 0.00 0.00 0.00 29 1010.2
20260504010926 27 283 9.7 11.3 0.00 0.00 0.00 29 1010.1
20260504010422 27 279 1.6 3.2 0.00 0.00 0.00 29 1010.2
20260504005919 27 266 9.7 9.7 0.00 0.00 0.00 30 1010.4
20260504005415 28 263 8.0 9.7 0.00 0.00 0.00 29 1010.5
20260504004913 28 296 6.4 8.0 0.00 0.00 0.00 29 1010.6
20260504004411 28 259 11.3 14.5 0.00 0.00 0.00 26 1010.6
20260504003908 28 283 3.2 4.8 0.00 0.00 0.00 28 1010.7
20260504003404 28 256 4.8 8.0 0.00 0.00 0.00 27 1010.8
20260504002901 27 310 6.4 9.7 0.00 0.00 0.00 27 1010.6
20260504002358 28 276 11.3 12.9 0.00 0.00 0.00 27 1010.8
20260504001855 28 260 11.3 20.9 0.00 0.00 0.00 26 1010.7
20260504001353 28 283 12.9 14.5 0.00 0.00 0.00 27 1010.7
20260504000849 28 275 9.7 11.3 0.00 0.00 0.00 28 1010.9
20260504000346 28 278 11.3 14.5 0.00 0.00 0.00 27 1010.9
20260503235844 27 260 8.0 12.9 0.00 0.00 0.00 27 1011.0
20260503235341 28 293 12.9 14.5 0.00 0.00 0.00 27 1011.0
20260503234838 28 273 11.3 12.9 0.00 0.00 0.00 28 1011.0
20260503234336 28 265 11.3 11.3 0.00 0.00 0.00 30 1011.0
20260503233834 28 252 8.0 9.7 0.00 0.00 0.00 31 1011.0
20260503233329 28 280 9.7 9.7 0.00 0.00 0.00 30 1011.0
20260503232826 28 267 4.8 4.8 0.00 0.00 0.00 31 1011.1
20260503232323 27 297 11.3 14.5 0.00 0.00 0.00 30 1011.4
20260503231821 27 261 14.5 17.7 0.00 0.00 0.00 31 1011.4
20260503231318 27 280 14.5 16.1 0.00 0.00 0.00 32 1011.5
20260503230814 27 271 8.0 11.3 0.00 0.00 0.00 35 1011.5
20260503230311 27 255 14.5 16.1 0.00 0.00 0.00 34 1011.5
20260503225809 27 274 12.9 16.1 0.00 0.00 0.00 32 1011.5
20260503225305 27 280 16.1 20.9 0.00 0.00 0.00 33 1011.9
20260503224801 27 244 12.9 14.5 0.00 0.00 0.00 33 1011.9
20260503224259 27 269 8.0 9.7 0.00 0.00 0.00 35 1011.9
20260503223756 27 210 3.2 3.2 0.00 0.00 0.00 36 1012.1
20260503223253 27 268 6.4 9.7 0.00 0.00 0.00 37 1012.0
20260503222749 27 273 8.0 11.3 0.00 0.00 0.00 37 1012.3
20260503222247 27 275 11.3 12.9 0.00 0.00 0.00 36 1012.2
20260503221746 27 236 3.2 4.8 0.00 0.00 0.00 37 1012.3
20260503221243 27 268 9.7 11.3 0.00 0.00 0.00 37 1012.3
20260503220739 27 266 11.3 12.9 0.00 0.00 0.00 37 1012.4
20260503220237 27 192 0.0 0.0 0.00 0.00 0.00 38 1012.4
20260503215733 26 228 4.8 8.0 0.00 0.00 0.00 40 1012.5
20260503215230 26 261 9.7 12.9 0.00 0.00 0.00 40 1012.5
20260503214728 27 215 1.6 3.2 0.00 0.00 0.00 39 1012.5
20260503214225 26 261 8.0 9.7 0.00 0.00 0.00 39 1012.8
20260503213723 26 280 14.5 14.5 0.00 0.00 0.00 39 1012.9
20260503213220 26 286 8.0 11.3 0.00 0.00 0.00 42 1012.9
20260503212717 26 269 4.8 8.0 0.00 0.00 0.00 42 1012.9
20260503212214 26 252 9.7 11.3 0.00 0.00 0.00 42 1013.2
20260503211712 25 263 8.0 9.7 0.00 0.00 0.00 43 1012.8
20260503211208 25 284 8.0 11.3 0.00 0.00 0.00 45 1013.0
20260503210704 25 297 14.5 16.1 0.00 0.00 0.00 44 1013.1
20260503210201 26 274 11.3 12.9 0.00 0.00 0.00 43 1013.1
20260503205656 26 275 6.4 9.7 0.00 0.00 0.00 44 1013.2
20260503205152 26 213 6.4 8.0 0.00 0.00 0.00 44 1013.2
20260503204649 25 285 11.3 12.9 0.00 0.00 0.00 44 1013.4
20260503204147 26 255 9.7 11.3 0.00 0.00 0.00 43 1013.4
20260503203644 25 151 4.8 9.7 0.00 0.00 0.00 45 1013.6
20260503203142 25 261 8.0 9.7 0.00 0.00 0.00 46 1013.7
20260503202638 25 284 8.0 9.7 0.00 0.00 0.00 46 1013.7
20260503202137 25 214 4.8 8.0 0.00 0.00 0.00 45 1013.7
20260503201634 25 261 8.0 9.7 0.00 0.00 0.00 45 1013.8
20260503201131 25 212 1.6 3.2 0.00 0.00 0.00 45 1013.9
20260503200627 25 192 3.2 4.8 0.00 0.00 0.00 43 1013.9
20260503200124 25 221 4.8 8.0 0.00 0.00 0.00 45 1013.9
20260503195621 25 224 3.2 4.8 0.00 0.00 0.00 44 1014.0
20260503195118 25 197 3.2 8.0 0.00 0.00 0.00 44 1014.2
20260503194615 24 277 9.7 12.9 0.00 0.00 0.00 44 1014.2
20260503194110 24 252 8.0 9.7 0.00 0.00 0.00 43 1014.3
20260503193607 24 223 4.8 4.8 0.00 0.00 0.00 42 1014.2
20260503193102 24 259 8.0 9.7 0.00 0.00 0.00 43 1014.4
20260503192558 24 222 1.6 3.2 0.00 0.00 0.00 43 1014.4
20260503192054 23 263 4.8 8.0 0.00 0.00 0.00 45 1014.4
20260503191551 23 251 4.8 4.8 0.00 0.00 0.00 46 1014.7
20260503191048 23 209 0.0 0.0 0.00 0.00 0.00 46 1014.6
20260503190545 23 295 8.0 11.3 0.00 0.00 0.00 47 1014.7
20260503190042 23 242 3.2 3.2 0.00 0.00 0.00 45 1014.7
20260503185539 23 164 0.0 0.0 0.00 0.00 0.00 43 1014.7
20260503185038 23 269 6.4 9.7 0.00 0.00 0.00 44 1014.8
20260503184535 23 262 8.0 9.7 0.00 0.00 0.00 44 1014.7
20260503184032 22 238 3.2 3.2 0.00 0.00 0.00 45 1014.8
20260503183528 23 223 0.0 3.2 0.00 0.00 0.00 47 1014.9
20260503183025 22 249 1.6 3.2 0.00 0.00 0.00 46 1014.8
20260503182524 22 283 8.0 9.7 0.00 0.00 0.00 45 1015.0
20260503182021 22 196 0.0 1.6 0.00 0.00 0.00 45 1015.0
20260503181518 22 263 0.0 3.2 0.00 0.00 0.00 46 1014.9
20260503181014 21 264 4.8 4.8 0.00 0.00 0.00 49 1015.0
20260503180512 21 248 6.4 8.0 0.00 0.00 0.00 50 1015.1
20260503180009 21 197 1.6 1.6 0.00 0.00 0.00 48 1014.9
20260503175506 22 271 4.8 8.0 0.00 0.00 0.00 48 1015.0
20260503175003 21 247 3.2 3.2 0.00 0.00 0.00 48 1015.0
20260503174501 22 291 6.4 9.7 0.00 0.00 0.00 48 1015.3
20260503173956 22 161 0.0 0.0 0.00 0.00 0.00 43 1015.2